Tracking 28790 objects as of 19-Apr-2024
HD Live streaming from Space Station
objects crossing your sky now

NOAA 16 DEB

Track NOAA 16 DEB now!
10-day predictions


NORAD ID: 41264
Int'l Code: 2000-055FQ
Perigee: 833.7 km
Apogee: 839.0 km
Inclination: 98.7 °
Period: 101.5 minutes
Semi major axis: 7207 km
RCS: Unknown
Launch date: September 21, 2000
Source: United States (US)
Launch site: AIR FORCE WESTERN TEST RANGE (AFWTR)

Note: This is SATELLITE DEBRIS
Your satellite tracking list
Your tracking list is empty




NASA's NSSDC Master Catalog

Two Line Element Set (TLE):
1 41264U 00055FQ  24109.40372514  .00007435  00000-0  35890-2 0  9995
2 41264  98.6750 166.3303 0003688 184.7661 175.3480 14.18871174429436
Source of the keplerian elements: AFSPC